English version Home page |
Updated on July 29, 2002 |
プロフィール
|
軌道要素Epoch 1997 Nov. 8.0 TT = JDT 2450760.5 T 1997 Nov. 22.5066 TT Nakano q 6.466250 (2000.0) P Q z -0.001123 Peri. 223.4713 +0.0767156 +0.4711161 +/-0.000005 Node 74.4280 -0.4611781 +0.7981483 e 1.007263 Incl. 65.8130 -0.8839850 -0.3755115 From 79 observations 1999 Sept. 19-2001 Oct. 14, mean residual 0".7.
|
星図
|
光度変化m1 = 3.2 + 5 logΔ + 10.0 log r
|
軌道要素は中野主一氏の計算によるもので、MPCのEphemerides and Orbital Elementsに掲載されたものです。
|